STARLINK-2578, 48362

Orbit data source: Space-Track

STARLINK-2578, 48362 is a payload satellite owned by SpaceX/Seattle (US) in LEO that was launched on Tue, 04 May 2021 UTC via an FALCON 9 launch vehicle from the Air Force Eastern Test Range (AFETR). Payload-class satellites include a variety of spacecraft equipped with specific instruments for various scientific and technological missions. These include communications satellites like Starlink; space stations such as the ISS; scientific satellites like the Hubble; Earth observation satellites from companies like Planet Labs, Umbra, and HawkEye 360; GPS; miniature CubeSats for education and research; and military/defense satellites.

Loading next visibility...
Identifier
48362, 2021-038K
Orbit
LEO
Country
Flag of USUS
Related business
Manufacturer
SpaceX/Seattle
Mission
Operational Commercial Communications
Bus & Motor
STARLINK, Unknown motor
Mass
260 kg wet, ~248 kg dry
Launch date (UTC)
2021-05-04 (5 years ago)
Launch vehicle
FALCON 9
Launch site
Air Force Eastern Test Range (AFETR)
Object type
Payload
Rocket body
Debris
Shape & HBR
Box + 1 Pan, 10.1 m
Radar Cross Section
13.562 m², Large (>1 m²)

Expand to show TLE details & history
Last TLE update: 2 days ago

TLE from 2 days ago
0 STARLINK-2578
1 48362U 21038K   26171.44383001 -.00000814  00000-0 -14456-4 0  9996
2 48362  53.1580 240.1045 0001110  67.4749 292.6370 15.31697467282823
Epoch: 2026-06-20T10:39Z
TLE epoch observation values (Epoch: 2026-06-20T10:39:06.912Z)
Latitude
-0.00003°
Longitude
171.66731°
Altitude
471.355 km
Speed
7.632 km/s
True Right ascension
16h 00m 25s
True Declination
0° 00' 00"
Sunlit
Object was in full shadow at epoch
Visualization orbit readout
Latitude
Unknown
Longitude
Unknown
Altitude
Unknown
Speed
Unknown
Apparent Right ascension
Unknown
Apparent Declination
Unknown
Sunlit
N/A
Visualization observer readout
Local Sidereal Time
23:08:49
Azimuth
Unknown
Elevation
Unknown
Doppler factor
Unknown
Orbital elements
Apogee altitude
471.765 km
Perigee altitude
470.244 km
Semi-major axis
6,849.141 km
Eccentricity
0.00011
Inclination
53.158°
RAAN
240.1045°
Arg. of periapsis
67.4749°
True anomaly
292.62526°
Mean anomaly
292.637°
Eccentric anomaly
292.63113°
Mean motion
3.82903 °/min
Orbital period
94.02 mins
BSTAR
-0.000014456
Loading maneuver chart data...
Computing Atmospheric mass density...

Documentation

Showing up to 5 results
|